Regional Weather Roundup
Issued by NWS

Home | Current Version | Previous Version | Graphics & Text | Print | Product List | Glossary On
Versions: 1 2 3 4 5 6 7 8 9 10 11 12 13 14 15 16 17 18 19 20 21 22 23 24 25 26 27 28 29 30 31 32 33 34 35 36 37 38 39 40 41 42 43 44 45 46 47 48 49 50
000
ASUS43 KOAX 262002
RWRNE

WEATHER ROUNDUP FOR NEBRASKA
NATIONAL WEATHER SERVICE OMAHA NE
200 PM CST MON JAN 26 2015

NOTES: SATELLITE DATA IS BEING USED TO AUGMENT CLOUD COVER ABOVE
       12000 FEET.
       "FAIR" INDICATES FEW OR NO CLOUDS BELOW 12,000 FEET WITH NO
       SIGNIFICANT WEATHER AND/OR OBSTRUCTIONS TO VISIBILITY.

  * THESE STATIONS DO NOT REPORT WEATHER SUCH AS RAIN...SNOW OR FOG.

NEZ001>004-019>022-054>056-262100-
NEBRASKA PANHANDLE

CITY           SKY/WX    TMP DP  RH WIND       PRES   REMARKS
SCOTTSBLUFF    SUNNY     62  37  39 W13       30.13F
ALLIANCE       SUNNY     60  36  40 NW13      30.11F
CHADRON        SUNNY     62  34  35 W20G26    30.08F
SIDNEY         SUNNY     66  30  26 NW20      30.16F
$$

NEZ057>060-069>072-079>082-262100-
SOUTHWEST NEBRASKA

CITY           SKY/WX    TMP DP  RH WIND       PRES   REMARKS
NORTH PLATTE   SUNNY     67  30  25 NW21G29   30.05F
IMPERIAL       SUNNY     67  29  24 NW18      30.10F
MCCOOK         SUNNY     71  29  21 NW20G26   30.05F
$$

NEZ005>010-023>029-035>040-094-262100-
NORTH CENTRAL NEBRASKA

CITY           SKY/WX    TMP DP  RH WIND       PRES   REMARKS
VALENTINE      SUNNY     62  32  32 NW17G24   30.01F
BROKEN BOW     SUNNY     65  34  31 NW28G33   30.00F
ORD            SUNNY     61  33  35 NW16G24   29.98F
$$

NEZ041-046>049-061>064-073>077-083>087-262100-
SOUTH CENTRAL NEBRASKA

CITY           SKY/WX    TMP DP  RH WIND       PRES   REMARKS
GRAND ISLAND   SUNNY     61  33  35 NW16      29.99F
AURORA         SUNNY     63  28  27 NW23G29   29.98F
HASTINGS       SUNNY     63  31  30 NW17      30.00F
KEARNEY *      SUNNY     64  34  32 N18G24    30.00F
$$

NEZ011>018-030>034-042>045-262100-
NORTHEAST NEBRASKA

CITY           SKY/WX    TMP DP  RH WIND       PRES   REMARKS
NORFOLK        SUNNY     58  33  39 NW17      29.94F
ALBION         SUNNY     59  31  33 NW14      29.97F
COLUMBUS *     SUNNY     59  34  38 NW15      29.98S
FREMONT        SUNNY     58  34  40 NW18G25   29.94F
TEKAMAH        SUNNY     56  39  53 NW20G28   29.92F
$$

NEZ050>053-065>068-078-088>093-262100-
SOUTHEAST NEBRASKA

CITY           SKY/WX    TMP DP  RH WIND       PRES   REMARKS
LINCOLN        SUNNY     61  33  35 NW17      29.96F
OMAHA EPPLEY   MOSUNNY   57  37  47 NW17      29.91F
FALLS CITY     SUNNY     62  34  35 NW15G22   29.91S
$$

NEZ044-045-051>053-067-262100-
OMAHA AREA

CITY           SKY/WX    TMP DP  RH WIND       PRES   REMARKS
OMAHA EPPLEY   MOSUNNY   57  37  47 NW17      29.91F
FREMONT        SUNNY     58  34  40 NW18G25   29.94F
OFFUTT AFB     SUNNY     58  36  43 NW18G25   29.91S
$$



USA.gov is the U.S. government's official web portal to all federal, state and local government web resources and services.